SL-19 DEB, 23488

Orbit data source: Space-Track

SL-19 DEB, 23488 is space debris in LEO originally from a launch on Mon, 26 Dec 1994 UTC launched from the Tyuratam Missile And Space Complex (TTMTR). Debris objects in space refer to the collection of defunct objects orbiting the Earth. Examples of debris include non-operational satellites, rocket bodies, and fragments generated from explosions, collisions, or faulty payload assembly.

Loading next visibility...
Identifier
23488, 1994-085L
Orbit
LEO
Country
Flag of CISCIS
Related business
Manufacturer
Unknown
Mission
Spacecraft
Bus & Motor
Unknown
Mass
Unknown
Launch date (UTC)
1994-12-26 (31 years ago)
Launch vehicle
Unknown
Launch site
Tyuratam Missile And Space Complex (TTMTR)
Object type
Payload
Rocket body
Debris
Shape & HBR
Unknown
Radar Cross Section
Medium (>0.1 m² and <1 m²)

Expand to show TLE details & history
Last TLE update: 10 hours ago

TLE from 10 hours ago
0 SL-19 DEB
1 23488U 94085L   25261.12557600  .00000953  00000-0  26766-1 0  9998
2 23488  64.9971 157.2517 0230914 172.7404 337.8558 11.29485199264195
Epoch: 2025-09-18T03:00Z
TLE epoch observation values (Epoch: 2025-09-18T03:00:49.766Z)
Latitude
27.37401°
Longitude
-79.15346°
Altitude
1,836.267 km
Speed
7.043 km/s
True Right ascension
21h 33m 22s
True Declination
27° 15' 08"
Sunlit
Object was in full shadow at epoch
Visualization orbit readout
Latitude
Unknown
Longitude
Unknown
Altitude
Unknown
Speed
Unknown
Apparent Right ascension
Unknown
Apparent Declination
Unknown
Sunlit
N/A
Visualization observer readout
Local Sidereal Time
06:13:17
Azimuth
Unknown
Elevation
Unknown
Doppler factor
Unknown
Orbital elements
Apogee altitude
2,205.403 km
Perigee altitude
1,817.938 km
Semi-major axis
8,389.808 km
Eccentricity
0.02309
Inclination
64.9971°
RAAN
157.2517°
Arg. of periapsis
172.7404°
True anomaly
336.83108°
Mean anomaly
337.8558°
Eccentric anomaly
337.34622°
Mean motion
2.82433 °/min
Orbital period
127.46 mins
BSTAR
0.026766
Loading maneuver chart data...
Computing Atmospheric mass density...
Loading historical data...
Loading historical data...
Loading historical data...
Loading historical data...
Loading historical data...
Loading historical data...
Loading historical data...

Documentation

Showing up to 5 results
|